Weather Roundup
Issued by NWS Chicago, IL

Home | Current Version | Previous Version | Graphics & Text | Print | Product List | Glossary On
Versions: 1 2 3 4 5 6 7 8 9 10 11 12 13 14 15 16 17 18 19 20 21 22 23 24 25 26 27 28 29 30 31 32 33 34 35 36 37 38 39 40 41 42 43 44 45 46 47 48 49 50
000
NZUS59 KLOT 230200
HRRLOT

CHICAGO AREA WEATHER ROUNDUP
NATIONAL WEATHER SERVICE CHICAGO/ROMEOVILLE IL
900 PM CDT FRI AUG 22 2014

NOTE: "FAIR" INDICATES FEW OR NO CLOUDS BELOW 12,000 FEET WITH NO
SIGNIFICANT WEATHER AND/OR OBSTRUCTIONS TO VISIBILITY.

* THESE STATIONS ARE NOT UNDER NWS QUALITY CONTROL. THEY ALSO MAY NOT
  REPORT WEATHER SUCH AS PRECIPITATION OR FOG.

ILZ005-006-012>014-019>023-230300-
NORTHEAST ILLINOIS

CITY           SKY/WX    TMP DP  RH WIND       PRES   REMARKS
OHARE          MOCLDY    80  71  74 SW3       29.96R HX  84
MIDWAY         MOCLDY    82  74  76 SW3       29.96R HX  88
AURORA         PTCLDY    77  72  84 S6        29.97R
WAUKEGAN       CLOUDY    73  72  96 NE3       29.97R FOG
DUPAGE AIRPORT PTCLDY    76  73  91 CALM      29.97R
WHEELING       MOCLDY    78  73  84 CALM      29.98R HX  81
NORTHERLY IS     N/A     75  72  90 CALM        N/A
$$

WIZ051-052-058>065-066-070>072-230300-
SOUTHEAST WISCONSIN

CITY           SKY/WX    TMP DP  RH WIND       PRES   REMARKS
MILWAUKEE      FOG       70  69  97 NE3       29.98R VSB 1/2
KENOSHA*       CLOUDY    74  72  93 E6        29.99R
RACINE*        FOG       71  70  96 CALM      30.00R VSB 1/2
$$

INZ001>003-010>013-019-020-230300-
NORTHWEST INDIANA

CITY           SKY/WX    TMP DP  RH WIND       PRES   REMARKS
GARY*          MOCLDY    79  73  83 CALM      29.97R HX  82
MICHIGAN CITY* NOT AVBL
RENSSELAER*    NOT AVBL
VALPARAISO     MOCLDY    75  71  87 W6        29.98S
$$

LMZ740>746-230300-
SOUTHERN LAKE MICHIGAN

STATION/POSITION TIME  SKY/WX   TEMP WIND        PRES    VSBY
                                AIR  DIR/SP/G
                 (UTC)          (F)  (DEG/KT/KT) (MB)    (MI)
HARRISON CRIB    0100            74   80/  7/  8   N/A
BURNHAM HARBOR   0200            75   CALM  /  3   N/A
CALUMET HARBOR   0100            80  210/  3/  4 1013.3R
BURNS HARBOR     NOT AVBL
MICHIGAN CITY    0100            79  190/  1/  2   N/A
$$

ABBREVIATIONS USED IN REMARKS
   TC - TEMPERATURE IN CELSIUS
  WCI - WIND CHILL INDEX
   HX - HEAT INDEX
  VSB - VISIBILITY
$$



USA.gov is the U.S. government's official web portal to all federal, state and local government web resources and services.